アトラス彗星

C/2019 Y1 ( ATLAS )

English version
Home page
Updated on February 19, 2020

---------------------------------------------------------------------

・ プロフィール

発見日 2019年12月16日
発見光度 17.9等
発見者 Asteroid Terrestrial-Impact Last Alert System (ATLAS) search program

・ 写真集

・ 軌道要素

Epoch 2020 Mar. 12.0 TT = JDT 2458920.5
T 2020 Mar. 15.57647 TT                                 Bell
q   0.8368266            (2000.0)            P               Q
z  +0.0056325      Peri.   57.57875     +0.33158070     -0.80067202
 +/-0.0001737      Node    31.38972     +0.12414030     -0.48727135
e   0.9952866      Incl.   73.33426     +0.93522373     +0.34855553
From 138 observations 2019 Dec. 16-2020 Feb. 3, mean residual 0".6.

・ 星図

・ 光度変化

        m1 =  8.0 + 5 logΔ + 25.0 log r  [   ,-60]  (              〜2020年 1月15日)
        m1 = 10.0 + 5 logΔ + 10.0 log r  [-60,   ]  (2020年 1月15日〜              )

---------------------------------------------------------------------

軌道要素はM.P.E.C. 2020-C98に掲載されたものです。
星図はステラナビゲータ Ver.10 (アストロアーツ) で作成したものです。
光度グラフはComet for Windowsで作成したものです。

---------------------------------------------------------------------

Copyright(C) Seiichi Yoshida (comet@aerith.net). All rights reserved.